Date String (YYYY-MM-DD hh:mm:ss) UTC,Instrument flags,absolute air pressure of the measurement (hPa),sample flow rate (lpm),inlet stack bypass flow (lpm),air temperature of the measurement (°C),ambient temperature measured by the external sensor (°C),aerosol sample conditioner tube jacket temperature (°C),OPC LED temperature (°C),internal box temperature (°C),relative humidity of the measurement (%),span deviation,mass concentration of particles derived from Lorenz-Mie calculation of OPC scattering (μg/m³),mass concentration of particles derived from Lorenz-Mie calculation of OPC scattering (μg/m³),mass concentration of particles derived from Lorenz-Mie calculation of OPC scattering (μg/m³)
DateTimeUTC,F1_M11,P_M11,Q1_M11,Q2_M11,T1_M11,T2_M11,T3_M11,T4_M11,T5_M11,U1_M11,ZSPAN_M11,X0_M11,X2_M11,X1_M11
2023-07-01 17:00:00,SystemResetWarning,0834.9,4.99,000.00,029.1,027.8,000.0,037.5,030.8,20.3,0000.0,0006.08,0003.48,0003.32
2023-07-01 17:01:00,SystemResetWarning,0835.0,4.99,000.00,029.1,027.9,000.0,037.6,030.8,21.1,0000.0,0006.39,0003.52,0003.33
2023-07-01 17:02:00,SystemResetWarning,0835.0,5.00,000.00,029.2,028.0,000.0,037.6,030.9,20.6,0000.0,0006.67,0003.56,0003.34
2023-07-01 17:03:00,SystemResetWarning,0835.0,4.99,000.00,029.2,026.9,000.0,037.5,030.8,21.0,0000.0,0005.52,0003.57,0003.33
2023-07-01 17:04:00,SystemResetWarning,0834.9,5.00,000.00,029.1,025.2,000.0,037.4,030.5,20.7,0000.0,0005.12,0003.55,0003.33
2023-07-01 17:05:00,SystemResetWarning,0835.0,5.01,000.00,029.0,024.9,000.0,037.3,030.4,20.5,0000.0,0005.24,0003.55,0003.33
2023-07-01 17:06:00,SystemResetWarning,0835.0,5.01,000.00,028.9,025.2,000.0,037.3,030.2,21.4,0000.0,0005.51,0003.57,0003.34
2023-07-01 17:07:00,SystemResetWarning,0835.0,4.99,000.00,028.9,025.6,000.0,037.4,030.2,20.9,0000.0,0005.49,0003.57,0003.34
2023-07-01 17:08:00,SystemResetWarning,0834.9,4.99,000.00,028.9,026.0,000.0,037.4,030.3,21.1,0000.0,0005.45,0003.58,0003.34
2023-07-01 17:09:00,SystemResetWarning,0835.0,5.01,000.00,028.9,026.4,000.0,037.4,030.4,21.4,0000.0,0005.49,0003.60,0003.36
2023-07-01 17:10:00,SystemResetWarning,0835.0,5.01,000.00,028.9,026.8,000.0,037.4,030.4,21.3,0000.0,0005.55,0003.63,0003.37
2023-07-01 17:11:00,SystemResetWarning,0835.0,4.99,000.00,028.9,027.0,000.0,037.4,030.5,21.0,0000.0,0005.55,0003.63,0003.38
2023-07-01 17:12:00,SystemResetWarning,0835.0,5.00,000.00,028.9,027.3,000.0,037.4,030.6,21.6,0000.0,0005.47,0003.62,0003.38
2023-07-01 17:13:00,SystemResetWarning,0835.0,5.00,000.00,029.0,027.5,000.0,037.4,030.6,22.2,0000.0,0005.42,0003.62,0003.39
2023-07-01 17:14:00,SystemResetWarning,0835.0,5.00,000.00,029.0,027.6,000.0,037.5,030.7,22.1,0000.0,0005.53,0003.65,0003.40
2023-07-01 17:15:00,SystemResetWarning,0835.0,5.01,000.00,029.0,027.8,000.0,037.5,030.7,22.1,0000.0,0005.62,0003.68,0003.40
2023-07-01 17:16:00,SystemResetWarning,0835.0,5.01,000.00,029.1,027.9,000.0,037.5,030.8,21.3,0000.0,0006.14,0003.67,0003.41
2023-07-01 17:17:00,SystemResetWarning,0835.0,4.98,000.00,029.1,026.6,000.0,037.4,030.7,21.3,0000.0,0006.30,0003.64,0003.40
2023-07-01 17:18:00,SystemResetWarning,0835.0,5.00,000.00,029.0,024.9,000.0,037.3,030.4,20.8,0000.0,0006.30,0003.65,0003.41
2023-07-01 17:19:00,SystemResetWarning,0835.0,5.01,000.00,028.9,024.9,000.0,037.2,030.3,20.6,0000.0,0006.35,0003.65,0003.41
2023-07-01 17:20:00,SystemResetWarning,0835.0,5.01,000.00,028.9,025.2,000.0,037.2,030.1,20.0,0000.0,0007.59,0003.64,0003.41
2023-07-01 17:21:00,SystemResetWarning,0835.0,5.00,000.00,028.8,025.7,000.0,037.3,030.2,20.5,0000.0,0007.58,0003.64,0003.41
2023-07-01 17:22:00,SystemResetWarning,0835.0,5.00,000.00,028.8,026.1,000.0,037.3,030.3,21.2,0000.0,0007.58,0003.64,0003.41
2023-07-01 17:23:00,SystemResetWarning,0835.1,5.00,000.00,028.8,026.5,000.0,037.3,030.3,22.9,0000.0,0007.49,0003.63,0003.41
2023-07-01 17:24:00,SystemResetWarning,0835.0,5.00,000.00,028.8,026.8,000.0,037.3,030.4,22.4,0000.0,0007.41,0003.61,0003.41
2023-07-01 17:25:00,SystemResetWarning,0835.0,5.00,000.00,028.9,027.1,000.0,037.4,030.5,22.0,0000.0,0007.33,0003.58,0003.40
2023-07-01 17:26:00,SystemResetWarning,0835.0,4.99,000.00,028.9,027.3,000.0,037.4,030.6,21.9,0000.0,0007.23,0003.56,0003.41
2023-07-01 17:27:00,SystemResetWarning,0835.0,5.01,000.00,028.9,027.5,000.0,037.4,030.6,22.3,0000.0,0006.81,0003.56,0003.41
2023-07-01 17:28:00,SystemResetWarning,0835.0,5.00,000.00,029.0,027.7,000.0,037.4,030.7,22.2,0000.0,0006.19,0003.57,0003.41
2023-07-01 17:29:00,SystemResetWarning,0835.0,4.99,000.00,029.0,027.8,000.0,037.4,030.7,22.9,0000.0,0006.38,0003.60,0003.40
2023-07-01 17:30:00,SystemResetWarning,0835.0,4.98,000.00,029.0,027.1,000.0,037.4,030.7,21.6,0000.0,0007.23,0003.62,0003.40
2023-07-01 17:31:00,SystemResetWarning,0835.0,5.00,000.00,029.0,025.3,000.0,037.2,030.4,22.3,0000.0,0006.17,0003.62,0003.39
2023-07-01 17:32:00,SystemResetWarning,0835.0,5.01,000.00,028.9,024.7,000.0,037.1,030.2,22.9,0000.0,0006.29,0003.65,0003.38
2023-07-01 17:33:00,SystemResetWarning,0835.0,5.00,000.00,028.8,025.1,000.0,037.2,030.1,22.0,0000.0,0006.39,0003.66,0003.39
2023-07-01 17:34:00,SystemResetWarning,0835.0,5.00,000.00,028.8,025.5,000.0,037.2,030.1,22.8,0000.0,0007.59,0003.66,0003.39
2023-07-01 17:35:00,SystemResetWarning,0835.0,5.01,000.00,028.7,025.9,000.0,037.2,030.2,22.7,0000.0,0007.57,0003.65,0003.39
2023-07-01 17:36:00,SystemResetWarning,0835.0,4.99,000.00,028.7,026.3,000.0,037.2,030.3,21.7,0000.0,0008.14,0003.66,0003.40
2023-07-01 17:37:00,SystemResetWarning,0835.0,4.99,000.00,028.8,026.6,000.0,037.2,030.3,22.5,0000.0,0008.31,0003.66,0003.40
2023-07-01 17:38:00,SystemResetWarning,0835.0,5.01,000.00,028.8,026.9,000.0,037.3,030.4,22.1,0000.0,0008.30,0003.67,0003.40
2023-07-01 17:39:00,SystemResetWarning,0835.0,5.01,000.00,028.8,027.2,000.0,037.3,030.5,21.8,0000.0,0008.29,0003.68,0003.41
2023-07-01 17:40:00,SystemResetWarning,0835.0,5.00,000.00,028.8,027.4,000.0,037.3,030.5,22.6,0000.0,0008.19,0003.66,0003.42
2023-07-01 17:41:00,SystemResetWarning,0835.0,5.00,000.00,028.9,027.6,000.0,037.3,030.6,23.8,0000.0,0007.63,0003.61,0003.42
2023-07-01 17:42:00,SystemResetWarning,0835.0,4.99,000.00,028.9,027.7,000.0,037.3,030.6,21.7,0000.0,0007.35,0003.60,0003.43
2023-07-01 17:43:00,SystemResetWarning,0835.0,5.00,000.00,029.0,027.8,000.0,037.4,030.7,20.8,0000.0,0007.22,0003.56,0003.43
2023-07-01 17:44:00,SystemResetWarning,0834.9,4.99,000.00,029.0,026.9,000.0,037.3,030.6,21.0,0000.0,0007.19,0003.55,0003.42
2023-07-01 17:45:00,SystemResetWarning,0834.9,5.00,000.00,028.9,025.8,000.0,037.2,030.4,22.0,0000.0,0006.10,0003.57,0003.43
2023-07-01 17:46:00,SystemResetWarning,0834.9,5.00,000.00,028.9,025.9,000.0,037.2,030.3,21.8,0000.0,0005.82,0003.59,0003.44
2023-07-01 17:47:00,SystemResetWarning,0835.3,5.00,000.00,028.8,026.1,000.0,037.2,030.2,21.6,0000.0,0005.20,0003.62,0003.45
2023-07-01 17:48:00,SystemResetWarning,0835.3,4.98,000.00,028.8,026.5,000.0,037.3,030.3,21.3,0000.0,0004.76,0003.63,0003.46
2023-07-01 17:49:00,SystemResetWarning,0834.9,5.02,000.00,028.8,026.8,000.0,037.3,030.4,22.4,0000.0,0004.83,0003.64,0003.46
2023-07-01 17:50:00,SystemResetWarning,0835.1,5.01,000.00,028.9,027.0,000.0,037.3,030.5,21.5,0000.0,0005.47,0003.67,0003.45
2023-07-01 17:51:00,SystemResetWarning,0834.9,5.00,000.00,028.9,027.3,000.0,037.3,030.6,21.7,0000.0,0005.88,0003.73,0003.46
2023-07-01 17:52:00,SystemResetWarning,0835.1,5.00,000.00,028.9,027.5,000.0,037.4,030.6,21.1,0000.0,0006.13,0003.77,0003.47
2023-07-01 17:53:00,SystemResetWarning,0835.2,5.00,000.00,029.0,027.7,000.0,037.4,030.7,21.5,0000.0,0006.30,0003.80,0003.47
2023-07-01 17:54:00,SystemResetWarning,0835.2,4.99,000.00,029.0,027.0,000.0,037.3,030.6,21.3,0000.0,0006.45,0003.84,0003.49
2023-07-01 17:55:00,SystemResetWarning,0835.3,5.00,000.00,028.9,025.1,000.0,037.2,030.4,21.6,0000.0,0006.76,0003.86,0003.50
2023-07-01 17:56:00,SystemResetWarning,0835.4,5.01,000.00,028.9,024.6,000.0,037.1,030.2,21.0,0000.0,0007.37,0003.86,0003.50
2023-07-01 17:57:00,SystemResetWarning,0835.3,5.01,000.00,028.8,024.9,000.0,037.1,030.1,21.9,0000.0,0007.32,0003.84,0003.50
2023-07-01 17:58:00,SystemResetWarning,0835.4,4.99,000.00,028.7,025.4,000.0,037.1,030.0,21.9,0000.0,0007.21,0003.83,0003.50
2023-07-01 17:59:00,SystemResetWarning,0835.4,5.00,000.00,028.7,025.8,000.0,037.2,030.1,20.8,0000.0,0007.22,0003.83,0003.50
